Location: Poughquag
(41.6090°N, 73.6820°W)
Time: 02:16:27
(UTC-04:00)

Transit 2A Rocket - Pass Details

Date: 03 June 2020
Orbit: 584 x 919 km, 66.7° (Epoch: 06 July)

Event Time Altitude Azimuth Distance (km) Brightness Sun altitude
Rises 20:59:19 0° 171° (S) 3,018 7.6 -6.2°
Reaches altitude 10° 21:01:58 10° 156° (SSE) 2,165 6.8 -6.6°
Maximum altitude 21:05:45 22° 106° (ESE) 1,575 6.1 -7.1°
Drops below altitude 10° 21:09:49 10° 56° (ENE) 2,351 7.4 -7.7°
Sets 21:12:49 0° 43° (NE) 3,349 8.3 -8.2°
